Aérodrome :
LOGIN :

S'inscrire | Disclaimer

   EN    FR    IT 

 










Légende :    VFR   VFR Marginal   IFR   IFR Intensif   IFR Très Intensif
Visi : 
Plafond : 
>= 8 km
>= 3000ft
5 à 8 km
1000 à 3000 ft
1500m à 5 km
500 à 1000 ft
800 à 1500m
200 à 500 ft
< 800m
< 200 ft
Symboles :   Orages  Brouillard  Fortes neiges  Fortes précipitations  Vent > 20 kt
SIGMETs :   Divers  Orages  Givrage  Turbulence  Onde Orograph.  Cendres Volcan.







- Altitude de l'aérodrome : 659 ft
- Code IATA : LGG


EBLG - Liège

DERNIER METAR :
  • 182350Z 15004KT CAVOK 17/13 Q1017 NOSIG

METARs EXPIRÉS :
  • 182320Z 20003KT 160V220 CAVOK 17/12 Q1017 NOSIG
  • 182250Z 28002KT CAVOK 18/13 Q1017 NOSIG
  • 182220Z 28004KT CAVOK 17/13 Q1017 NOSIG
  • 182150Z 28003KT 250V310 CAVOK 18/13 Q1017 NOSIG
  • 182120Z 27004KT CAVOK 18/13 Q1017 NOSIG

TAF TAF EBLG
Valide du 19 à 00h jusqu'au 20 à 06h UTC


182310Z 1900/2006 19006KT CAVOK
TEMPO 1911/1916 23015G25KT
Pas de NOTAMs connus pour ce terrain.



MET'MAP, la Météo Aéronautique d'un coup d'oeil ! - Copyright ORBIFLY Décembre 2007 - Disclaimer

ORBIFLY MET'MAP TEAM :

Programmation & Développement : Alexandra Zaïnal
Conception & Développement : Baudouin d'Aumeries
Co-Programmation & Développement : Marc-Olivier Méhu
Soutien technique & logistique : Manuel Goepfert

Contact : metmap@orbifly.com




SOURCES & CREDITS :

   NOAA